Flag for Russia Weather past 2 weeks in Saint-Petersburg, Russia

Now
36 °F

Partly sunny.


Feels Like: 33 °F
Forecast: 35 / 42 °F
Wind: 3 mph from Northeast

Location: St. Petersburg

Current Time: Apr 19, 2015 at 11:53:04 AM

Latest Report: Apr 19, 2015 at 11:30 AM


Visibility: N/A

Pressure: 29.83 "Hg

Humidity: 44%

Dew point: 16 °F

Location of Saint-PetersburgLocation

Historic Weather in Saint-Petersburg — Graph

°F

Saint-Petersburg temperature yesterday

Maximum temperature yesterday: 46 °F (at 2:00 PM)
Minimum temperature yesterday: 34 °F (at 6:00 AM)
Average temperature yesterday: 39 °F

Past Weeks' High & Low Weather Summary

 TemperatureHumidityPressure
High68 °F (Apr 12, 1:00 PM)100% (Apr 5, 1:00 AM)30.21 "Hg (Apr 5, 1:00 AM)
Low30 °F (Apr 19, 5:00 AM)29% (Apr 18, 2:00 PM)29.18 "Hg (Apr 16, 5:30 AM)
Average40 °F69%29.76 "Hg
* Reported Apr 4 10:00 AM — Apr 19 10:30 AM, Saint-Petersburg, Weather by CustomWeather, © 2015

Note: Actual official high and low records may vary slightly from our data, if they occured in-between our weather recording intervals... More about our weather records

Advertising

Saint-Petersburg weather history for previous 24 hours

 ConditionsComfort  
Time TempWeatherWind HumidityBarometerVisibility
10:30 AM
Sun, Apr 19
34 °FBroken clouds.6 mph48%29.83 "HgN/A
10:00 AM34 °FPartly sunny.8 mph48%29.83 "HgN/A
9:30 AM32 °FPartly sunny.6 mph51%29.83 "HgN/A
9:00 AM32 °FPartly sunny.8 mph51%29.86 "HgN/A
8:30 AM32 °FPartly sunny.10 mph55%29.86 "HgN/A
8:00 AM30 °FPartly sunny.10 mph59%29.86 "HgN/A
7:30 AM30 °FPartly sunny.10 mph64%29.86 "HgN/A
7:00 AM30 °FScattered clouds.8 mph64%29.86 "HgN/A
6:30 AM30 °FPassing clouds.10 mph64%29.86 "HgN/A
6:00 AM30 °FPassing clouds.6 mph64%29.86 "HgN/A
5:30 AM30 °FPassing clouds.6 mph64%29.86 "HgN/A
5:00 AM30 °FClear.8 mph64%29.86 "Hg10 mi
4:30 AM32 °FClear.3 mph64%29.86 "Hg10 mi
4:00 AM32 °FPassing clouds.6 mph64%29.86 "HgN/A
3:30 AM34 °FPassing clouds.3 mph60%29.86 "HgN/A
3:00 AM34 °FClear.No wind60%29.86 "Hg10 mi
2:30 AM34 °FClear.3 mph60%29.86 "Hg10 mi
2:00 AM34 °FClear.No wind60%29.86 "Hg10 mi
1:30 AM34 °FClear.3 mph60%29.86 "Hg10 mi
1:00 AM34 °FClear.6 mph60%29.86 "Hg10 mi
12:30 AM36 °FClear.No wind48%29.86 "Hg10 mi
12:00 AM36 °FClear.1 mph48%29.86 "Hg10 mi
11:30 PM
Sat, Apr 18
36 °FClear.1 mph48%29.86 "Hg10 mi
11:00 PM37 °FClear.1 mph41%29.86 "Hg10 mi
10:30 PM37 °FClear.1 mph41%29.86 "Hg10 mi
10:00 PM37 °FClear.1 mph41%29.86 "Hg10 mi
9:30 PM39 °FClear.1 mph39%29.86 "Hg10 mi
9:00 PM39 °FPassing clouds.3 mph42%29.86 "HgN/A
8:30 PM39 °FPassing clouds.3 mph45%29.86 "HgN/A
8:00 PM39 °FPassing clouds.3 mph45%29.86 "HgN/A
7:30 PM41 °FSunny.10 mph45%29.83 "Hg10 mi
7:00 PM43 °FScattered clouds.8 mph42%29.83 "HgN/A
6:30 PM45 °FBroken clouds.10 mph42%29.83 "HgN/A
6:00 PM45 °FPassing clouds.10 mph39%29.83 "HgN/A
5:30 PM45 °FSunny.10 mph39%29.83 "Hg10 mi
5:00 PM46 °FPassing clouds.8 mph34%29.83 "HgN/A
4:30 PM45 °FPassing clouds.10 mph34%29.83 "HgN/A
4:00 PM45 °FPassing clouds.8 mph31%29.83 "HgN/A
3:30 PM45 °FPassing clouds.10 mph34%29.83 "HgN/A
3:00 PM45 °FPassing clouds.10 mph31%29.86 "HgN/A
2:30 PM45 °FScattered clouds.13 mph31%29.86 "HgN/A
2:00 PM46 °FScattered clouds.10 mph29%29.86 "HgN/A
1:30 PM45 °FScattered clouds.10 mph31%29.86 "HgN/A
1:00 PM45 °FScattered clouds.13 mph37%29.86 "HgN/A
12:30 PM43 °FScattered clouds.13 mph36%29.86 "HgN/A
12:00 PM41 °FScattered clouds.10 mph39%29.86 "HgN/A
11:30 AM41 °FPartly sunny.10 mph42%29.86 "HgN/A
11:00 AM39 °FBroken clouds.10 mph42%29.86 "HgN/A
Weather by CustomWeather, © 2015

See weather overviewHow to use our weather pages